Ashland, WI

5:56 AM CDT on August 26, 2016 (GMT -0500)
Kennedy Memorial

Weather History for KASX - April, 2014

Change the Weather History Date:

Thursday, April 17, 2014

  Actual Average Record
Temperature  
Mean Temperature 32 °F -  
Max Temperature 37 °F 55 °F 83 °F (1987)
Min Temperature 28 °F 29 °F 8 °F (1983)
Degree Days  
Heating Degree Days 32    
Moisture  
Dew Point 28 °F    
Average Humidity 90    
Maximum Humidity 100    
Minimum Humidity 65    
Precipitation  
Precipitation 0.09 in - - ()
Sea Level Pressure  
Sea Level Pressure 30.20 in    
Wind  
Wind Speed 13 mph (NNE)    
Max Wind Speed 18 mph    
Max Gust Speed -    
Visibility 5 miles    
Events Snow    
Averages and records for this station are not official NWS values.
T = Trace of Precipitation, MM = Missing Value Source: NWS Daily Summary

Daily Weather History Graph

Daily Weather History Graph

Search for Another Location

Airport or City:

Trip Planner

Search our weather history database for the weather conditions in past years. The results will help you decide how hot, cold, wet, or windy it might be!

Date:

Astronomy

Apr. 17, 2014 Rise Set
Actual Time 6:12 AM CDT 7:54 PM CDT
Civil Twilight 5:41 AM CDT 8:26 PM CDT
Nautical Twilight 5:02 AM CDT 9:05 PM CDT
Astronomical Twilight 4:20 AM CDT 9:47 PM CDT
Moon 10:47 PM CDT (4/17) 7:38 AM CDT (4/17)
Length of Visible Light 14h 45m
Length of Day
13h 41m
Waning Gibbous, 93% of the Moon is Illuminated
Apr 17
Waning Gibbous
Apr 22
Last Quarter
Apr 29
New
May 6
First Quarter
May 14
Full

Hourly Weather History & Observations

Time (CDT) Temp. Windchill Dew Point Humidity Pressure Visibility Wind Dir Wind Speed Gust Speed Precip Events Conditions
12:44 AM 28.0 °F 15.3 °F 27.0 °F 96% 30.12 in 1.0 mi NE 18.4 mph - 0.01 in Snow Light Snow
12:53 AM 28.0 °F 15.7 °F 27.0 °F 96% 30.16 in 1.0 mi NE 17.3 mph - 0.01 in Snow Light Snow
1:20 AM 28.0 °F 16.1 °F 28.0 °F 100% 30.12 in 0.8 mi NE 16.1 mph - 0.01 in Snow Light Snow
1:43 AM 28.0 °F 16.1 °F 27.0 °F 96% 30.11 in 1.0 mi NE 16.1 mph - 0.01 in Snow Light Snow
1:53 AM 28.0 °F 15.3 °F 27.0 °F 96% 30.15 in 1.0 mi NE 18.4 mph - 0.02 in Snow Light Snow
2:22 AM 28.0 °F 16.1 °F 27.0 °F 96% 30.10 in 0.8 mi NE 16.1 mph - 0.00 in Snow Light Snow
2:32 AM 28.0 °F 16.5 °F 28.0 °F 100% 30.10 in 1.0 mi NE 15.0 mph - 0.00 in Snow Light Snow
2:53 AM 28.0 °F 16.1 °F 27.0 °F 96% 30.14 in 1.0 mi NE 16.1 mph - 0.01 in Snow Light Snow
3:39 AM 28.0 °F 17.0 °F 28.0 °F 100% 30.09 in 0.8 mi NE 13.8 mph - 0.01 in Snow Light Snow
3:53 AM 28.0 °F 16.5 °F 28.0 °F 100% 30.13 in 0.8 mi NE 15.0 mph - 0.01 in Snow Light Snow
4:53 AM 28.0 °F 17.0 °F 28.0 °F 100% 30.14 in 0.8 mi NE 13.8 mph - 0.02 in Snow Light Snow
5:21 AM 28.0 °F 17.0 °F 28.0 °F 100% 30.10 in 1.0 mi NE 13.8 mph - 0.01 in Snow Light Snow
5:53 AM 28.0 °F 17.5 °F 28.0 °F 100% 30.14 in 1.2 mi NE 12.7 mph - 0.01 in Snow Light Snow
6:18 AM 28.0 °F 17.5 °F 28.0 °F 100% 30.10 in 2.0 mi NE 12.7 mph - 0.01 in Snow Light Snow
6:27 AM 28.0 °F 17.5 °F 28.0 °F 100% 30.10 in 1.2 mi NE 12.7 mph - 0.01 in Snow Light Snow
6:53 AM 28.0 °F 18.1 °F 28.0 °F 100% 30.15 in 1.2 mi NE 11.5 mph - 0.01 in Snow Light Snow
7:19 AM 28.9 °F 21.1 °F 28.0 °F 96% 30.12 in 2.5 mi NE 8.1 mph - 0.00 in Snow Light Snow
7:31 AM 28.9 °F 21.1 °F 28.0 °F 96% 30.12 in 3.0 mi NE 8.1 mph - 0.00 in Snow Light Snow
7:53 AM 28.9 °F 21.9 °F 28.9 °F 100% 30.17 in 3.0 mi NNE 6.9 mph - 0.00 in Snow Light Snow
8:53 AM 30.0 °F 25.2 °F 28.9 °F 96% 30.18 in 5.0 mi ENE 4.6 mph - 0.00 in   Overcast
9:53 AM 30.9 °F 25.2 °F 30.0 °F 96% 30.19 in 4.0 mi NW 5.8 mph - N/A   Overcast
10:53 AM 30.9 °F 24.3 °F 30.0 °F 96% 30.21 in 5.0 mi NW 6.9 mph - N/A   Overcast
11:26 AM 30.9 °F 23.5 °F 30.0 °F 96% 30.18 in 5.0 mi WNW 8.1 mph - N/A   Overcast
12:17 PM 33.1 °F 26.9 °F 28.9 °F 85% 30.19 in 10.0 mi WNW 6.9 mph - N/A   Overcast
12:53 PM 34.0 °F 27.2 °F 30.0 °F 85% 30.24 in 10.0 mi WNW 8.1 mph - N/A   Overcast
1:23 PM 33.1 °F 24.9 °F 28.9 °F 85% 30.21 in 10.0 mi West 10.4 mph - N/A   Overcast
1:53 PM 34.0 °F 24.6 °F 28.9 °F 82% 30.26 in 10.0 mi WNW 13.8 mph - N/A   Overcast
2:53 PM 35.1 °F 27.9 °F 28.0 °F 76% 30.27 in 10.0 mi NW 9.2 mph - N/A   Overcast
3:53 PM 37.0 °F 31.6 °F 27.0 °F 67% 30.27 in 10.0 mi WNW 6.9 mph - N/A   Mostly Cloudy
4:53 PM 37.0 °F 31.0 °F 26.1 °F 65% 30.29 in 10.0 mi NW 8.1 mph - N/A   Overcast
5:53 PM 36.0 °F 31.1 °F 26.1 °F 67% 30.32 in 10.0 mi NW 5.8 mph - N/A   Overcast
6:53 PM 35.1 °F 29.3 °F 26.1 °F 70% 30.32 in 10.0 mi Variable 6.9 mph - N/A   Overcast
7:53 PM 34.0 °F 28.8 °F 27.0 °F 75% 30.32 in 10.0 mi North 5.8 mph - N/A   Overcast
8:53 PM 33.1 °F 30.0 °F 26.1 °F 75% 30.35 in 10.0 mi NW 3.5 mph - N/A   Overcast
9:53 PM 32.0 °F - 26.1 °F 79% 30.35 in 10.0 mi Calm Calm - N/A   Overcast
10:53 PM 28.9 °F - 26.1 °F 89% 30.36 in 10.0 mi Calm Calm - N/A   Scattered Clouds
11:53 PM 28.0 °F - 25.0 °F 88% 30.36 in 10.0 mi Calm Calm - N/A   Clear